User: anonymous   Login
Location: *
(51.0333°S, 178.4667°E)
Time: 08:12:40
(UTC+00:00)
Language:

Starlink (trailer) - Orbit

View from above orbital plane
View from above orbital plane
View from above satellite
View from above satellite

Ground track
Ground track

The orbit data is extracted from the following two-line orbital elements,

1 44284U 19029BB  20026.25001157  .00431124  00000-0  23354-1 0  9997
2 44284  53.0008 139.8077 0001224  92.7905  64.7490 15.12033073 37427
Epoch (UTC): 26 January 2020 06:00:01
Eccentricity: 0.0001224
inclination: 53.0008°
perigee height: 529 km
apogee height: 531 km
right ascension of ascending node: 139.8077°
argument of perigee: 92.7905°
revolutions per day: 15.12033073
mean anomaly at epoch: 64.7490°
orbit number at epoch: 3742

The dashed part of the orbit path shows where the satellite is in the earth's shadow,  

DLR